Weather in Kuya

Russia / Nenets Autonomous Okrug     67°46′12″N   53°16′02″E
temp.,
°C
wind,
m/s
gust,
m/s
humid.,
%
clouds,
%
prec.,
mm/h
press.,
hPa
HPBL,
m
12 august, fri
fri1200:00+14sw81596100 4.0 1001737
03:00+14wnw589428 9.4 1001447
06:00+12wnw57861 0.0 1002384
09:00+16wnw45625 0.0 1002896
12:00+18wsw565498 0.2 10011472
15:00+13nw61184100 2.4 1003507
18:00+13wnw712735 0.1 10041157
21:00+10w6128388 0.1 1004604
13 august, sat
sat1300:00+10w7138196 0.1 1004896
03:00+10w81480100 0.2 1004821
06:00+10w91485100 0.3 1004757
09:00+10w91489100 0.9 1004855
12:00+11wnw101574100 0.3 10051583
15:00+9wnw101587100 0.9 10071411
18:00+9wnw91485100 0.3 1008991
21:00+8wnw81385100 0.4 1010817
14 august, sun
sun1400:00+6wnw613925 0.1 1012515
03:00+7wnw71281100 0.1 1013784
06:00+8nw71172100 0.0 10151167
09:00+9nw71167100 0.0 10161393
12:00+11wnw71064100 0.1 10171381
15:00+12nw7959100 0.2 10181462
18:00+11wnw3565100 0.1 1018233
21:00+9w357823 0.1 101887
15 august, mon
mon1500:00+9sw3477100 0.0 101898
03:00+9sw4776100 0.0 1017167
06:00+11ssw51069100 0.0 1016355
09:00+14wsw686993 0.1 1015966
12:00+15nw7959100 0.2 10161396
15:00+14wnw7961100 0.3 10171437
18:00+12nw7107215 0.3 1018940
21:00+9wnw713885 0.3 1019439
16 august, tue
tue1600:00+8nw6128695 0.0 1021382
03:00+10nw6970100 0.0 10221011
06:00+10nw6868100 0.0 10231078
09:00+12nw6860100 0.0 10241184
12:00+13nw575397 0.0 10241065
15:00+10wnw2373100 0.1 1025342
18:00+10s3376100 0.1 1024199
21:00+10s4688100 0.3 1023160